sat.trackr.live / text

‹ back to catalog

ONEWEB-0049

NORAD 45154 · 2020-008Z

PAYLOAD ACTIVE UNKNOWN

§ Identity

Operator
Country
UK
Launch date
2020-02-06
Launch site
TYMSC
Launch vehicle
Mass (kg)
RCS (m²)

Purposes: comms

External: N2YO · Heavens-Above · Gunter

§ Orbital elements

Epoch: 2026-09-20T03:15:47.426112Z

Period
109.89 min
Inclination
87.8906°
Eccentricity
0.0001837
Mean motion
13.10376704 rev/d
Perigee alt
1,220.3 km
Apogee alt
1,223.1 km
Semi-major
7,599.8 km
B*
-2.0044e-4
RAAN
17.3718°
Arg perigee
113.9034°
Mean anomaly
246.2286°
Rev number
32,046

§ Raw data

ONEWEB-00491 45154U 20008Z   26263.13596558 -.00000057  00000+0 -20044-3 0  99962 45154  87.8906  17.3718 0001837 113.9034 246.2286 13.10376704320463

JSON: /api/v1/satellites/45154 · /tle

For live sub-satellite position, see the globe view (requires WebGL).

§ Visibility from observer

Set your observer location to see the next 7 days of passes ≥ 10°. The values pass through the URL so the page stays shareable.

No JS? Fill the form by hand. The geolocation button needs JavaScript.